Regional Weather Roundup
Issued by NWS

Home | Current Version | Previous Version | Graphics & Text | Print | Product List | Glossary On
Versions: 1 2 3 4 5 6 7 8 9 10 11 12 13 14 15 16 17 18 19 20 21 22 23 24 25 26 27 28 29 30 31 32 33 34 35 36 37 38 39 40 41 42 43 44 45 46 47 48 49 50
000
ASUS43 KMPX 211410
RWRMN
WEATHER ROUNDUP FOR MINNESOTA
NATIONAL WEATHER SERVICE TWIN CITIES/CHANHASSEN MN
800 AM CST TUE NOV 21 2017


NOTE: "FAIR" INDICATES FEW OR NO CLOUDS BELOW 12,000 FEET WITH NO
SIGNIFICANT WEATHER AND/OR OBSTRUCTIONS TO VISIBILITY. N/A MEANS
CURRENT SKY AND/OR WEATHER CONDITIONS ARE NOT AVAILABLE.

MNZ060>063-068>070-211500-
   Twin Cities Metro

CITY           SKY/WX    TMP DP  RH WIND       PRES   REMARKS
TWIN CITIES    MOCLDY    24  11  57 NW29G36   29.90R WCI   7
ST PAUL        CLOUDY    26  12  55 NW24G35   29.91R WCI  11
CRYSTAL        CLOUDY    22   8  55 NW26G37   29.91R WCI   5
BLAINE         MOCLDY    25  10  54 NW23G32   29.89R WCI  10
LAKEVILLE      FLURRIES  25  18  74 NW17G28   29.89R WCI  11
EDEN PRAIRIE   CLOUDY    25  12  58 NW18G31   29.90R WCI  11
SOUTH ST PAUL  MOCLDY    27  11  52 NW18G32   29.90R WCI  13
LAKE ELMO      CLOUDY    27  14  59 NW18G26   29.89R WCI  13
$$
MNZ001>005-007-008-013>017-022>024-027-028-211500-
   Northwest Minnesota

CITY           SKY/WX    TMP DP  RH WIND       PRES   REMARKS
BEMIDJI        LGT SNOW  14   9  79 NW18G24   29.97R WCI  -3
HALLOCK        LGT SNOW  12   9  85 NW23      30.14R WCI  -7
ROSEAU         FLURRIES  14   9  79 NW15      30.04R WCI  -1
WARROAD        FLURRIES  12   7  79 NW18G26   30.02R WCI  -5
THIEF RVR FALL FLURRIES  11   6  81 NW21      30.10R WCI  -8
CROOKSTON      CLOUDY    12   9  85 N22G28    30.14R WCI  -7
FOSSTON        FLURRIES   9   5  85 NW17G23   30.05R WCI -10
DETROIT LAKES  LGT SNOW  14  10  85 NW25G33   30.05R WCI  -5
MOORHEAD       CLEAR     12   7  79 N26G33    30.13R WCI  -8
PARK RAPIDS    FLURRIES  14   7  73 NW23G36   29.96R WCI  -5
MAHNOMEN       FLURRIES  11   7  82 NW18G26   30.07R WCI  -7
$$
MNZ006-009>011-018-025>026-211500-
   North Central Minnesota

CITY           SKY/WX    TMP DP  RH WIND       PRES   REMARKS
BAUDETTE       MOCLDY    13   8  81 NW23G30   29.96R WCI  -6
FLAG ISLAND    CLOUDY    12   7  79 NW28      29.98R HAZE    WCI  -9
INTL FALLS       N/A     14   6  70 NW15      29.89R WCI  -1
WASKISH        PTCLDY    14   9  79 NW10G18   29.98R WCI   1
BIG FORK       FLURRIES  18  10  73 NW10G17   29.88R WCI   6
LONGVILLE      LGT SNOW  18  10  73 NW8G23    29.92R WCI   7
GRAND RAPIDS   FLURRIES  17  10  74 NW22G31   29.88R WCI   0
CRANE LAKE     LGT SNOW  16   9  73 NW10G18   29.84R WCI   3
ORR            CLOUDY    16   7  67 NW9G21    29.81R WCI   4
COOK           LGT SNOW  16  12  86 NW8       29.82R VSB 1   WCI   5
WALKER         FLURRIES  15   8  74 NW16G25   29.95R WCI  -1
$$
MNZ012-019>021-037-211500-
   Northeast Minnesota

CITY           SKY/WX    TMP DP  RH WIND       PRES   REMARKS
DULUTH         LGT SNOW  19  12  74 NW16G24   29.77R WCI   4
ELY            LGT SNOW  16   9  73 NW16G29   29.74R WCI   0
HIBBING        FLURRIES  17   9  70 NW23G33   29.81R WCI  -1
EVELETH        FLURRIES  18   9  68 N13G25    29.80R WCI   4
DULUTH HARBOR  FLURRIES  25  16  68 W20G28    29.83R WCI  11
TWO HARBORS    LGT SNOW  25  14  63 W13G20    29.74R WCI  13
SILVER BAY     FLURRIES  19  10  68 NW9G24    29.71R WCI   9
GRAND MARAIS     N/A     21   9  59 MISG      29.68R
G MARAIS ARPRT LGT SNOW  12   5  73 NW12G24   29.58R WCI  -2
$$
MNZ029>031-032-039>041-046>048-054>057-064-211500-
   West Central Minnesota

CITY           SKY/WX    TMP DP  RH WIND       PRES   REMARKS
FERGUS FALLS   FLURRIES  16   9  73 N26G35    30.11R WCI  -3
WHEATON        CLOUDY    18   9  68 NW21G31   30.14R WCI   1
MORRIS         CLOUDY    18   9  68 NW31G41   30.06R WCI  -2
ALEXANDRIA     CLOUDY    16   9  74 NW22G39   30.01R WCI  -2
ELBOW LAKE     LGT SNOW  16  10  77 NW26G36   30.06R WCI  -3
WADENA         FLURRIES  12   9  85 NW15G24   29.99R WCI  -4
GLENWOOD       PTCLDY    18  10  73 NW25G37   30.00R WCI  -1
APPLETON       FLURRIES  21  10  63 NW24G38   30.08R WCI   4
BENSON           N/A     19   9  63 N25G37    30.05R WCI   2
ORTONVILLE     CLOUDY    19   9  63 MISG      30.10R
MADISON        CLOUDY    21  12  68 NW25G32   30.10R WCI   4
WILLMAR        MOCLDY    19  12  73 NW25G36   30.01R WCI   2
$$
MNZ033>034-036-042>043-049>051-058-059-211500-
   Central Minnesota

CITY           SKY/WX    TMP DP  RH WIND       PRES   REMARKS
ST CLOUD       CLOUDY    19   9  65 NW24G35   29.94R WCI   2
SAUK CENTRE    FLURRIES  17  10  73 NW20G26   29.99R WCI   1
PAYNESVILLE    MOCLDY    19  13  77 NW20G26   29.98R WCI   3
AITKIN         LGT RAIN  18  10  73 NW12G21   29.88R WCI   5
PINE RIVER     FLURRIES  16   9  73 NW16G26   29.97R WCI   0
BRAINERD       FLURRIES  19   9  65 NW24G30   29.93R WCI   2
STAPLES        CLOUDY    16   7  67 NW15G25   29.97R WCI   1
LONG PRAIRIE   FLURRIES  18  10  73 W22G32    29.95R WCI   0
LITTLE FALLS   CLOUDY    19   5  53 NW13G22   29.96R WCI   7
LITCHFIELD     MIX PCPN  21  14  73 NW24      29.97R WCI   4
BUFFALO        MOCLDY    21  11  64 NW13G22   29.96R WCI   8
MAPLE LAKE     MOCLDY    21  12  67 NW17G26   29.95R WCI   7
HUTCHINSON     MOCLDY    23  13  67 NW21G32   29.97R WCI   8
$$
MNZ037-044-045-052-053-211500-
   East Central Minnesota

CITY           SKY/WX    TMP DP  RH WIND       PRES   REMARKS
PRINCETON      CLOUDY    21   9  58 W18G35    29.91R WCI   6
MORA           CLOUDY    21  10  63 NW22G28   29.90R WCI   5
CAMBRIDGE      CLOUDY    23  10  58 NW14G23   29.91R WCI  11
RUSH CITY      CLOUDY    21  10  63 NW17G28   29.89R WCI   7
MOOSE LAKE     FLURRIES  21  12  68 NW14G22   29.84R WCI   8
HINCKLEY       CLOUDY    23  12  63 NW14G23   29.86R WCI  11
CLOQUET        FLURRIES  19   9  63 NW17G24   29.80R WCI   4
MCGREGOR       CLOUDY    21  12  68 NW18G25   29.86R WCI   6
$$
MNZ071>073-080-081-089-090-097-098-211500-
   Southwest Minnesota

CITY           SKY/WX    TMP DP  RH WIND       PRES   REMARKS
MONTEVIDEO     CLOUDY    19  12  73 N23G32    30.06R WCI   2
GRANITE FALLS  CLOUDY    23  14  69 NW26G36   30.07R WCI   6
CANBY          CLOUDY    20  11  67 W20G28    30.11R WCI   5
MARSHALL       CLOUDY    20  10  65 NW31G39   30.05R WCI   1
REDWOOD FALLS  CLOUDY    21   9  59 NW26G36   30.02R WCI   4
OLIVIA         PTCLDY    21  12  68 NW22G35   30.00R WCI   5
PIPESTONE      CLEAR     18   9  68 N25G35    30.05R WCI  -1
WINDOM           N/A     21   7  53 NW29      30.00R WCI   3
WORTHINGTON    PTCLDY    19  10  68 NW24G31   30.05R WCI   2
JACKSON        CLOUDY    21  10  63 NW28G37   30.00R WCI   3
SLAYTON        CLOUDY    19  10  70 NW28G35   30.04R WCI   0
$$
MNZ065>067-074>077-082>085-091>093-211500-
   South Central Minnesota

CITY           SKY/WX    TMP DP  RH WIND       PRES   REMARKS
MANKATO        FLURRIES  23  15  71 NW26G32   29.95R WCI   6
NEW ULM        CLOUDY    21  12  68 NW25G33   29.99R WCI   4
ST JAMES       CLOUDY    21  12  68 NW24G39   30.00R WCI   4
FAIRMONT       MOCLDY    22  12  65 NW29G36   29.99R WCI   4
GLENCOE        CLOUDY    25  14  63 NW24G35   29.94R WCI   9
FARIBAULT      CLOUDY    25  16  68 W18G30    29.91R WCI  11
OWATONNA       CLOUDY    25  16  68 W22G30    29.90R WCI  10
WASECA         CLOUDY    23  14  68 NW20G29   29.94R WCI   8
ALBERT LEA     CLOUDY    23  12  63 NW16G29   29.92R WCI  10
$$
MNZ078>079-086>088-094>096-211500-
   Southeast Minnesota

CITY           SKY/WX    TMP DP  RH WIND       PRES   REMARKS
ROCHESTER      CLOUDY    25  16  68 NW24G35   29.84R WCI   9
RED WING       CLOUDY    28  12  50 NW16G26   29.85R WCI  17
STANTON        CLOUDY    28  18  65 NW23      29.87R WCI  14
DODGE CENTER   CLOUDY    25  16  68 W22G31    29.86R WCI  10
WINONA         CLOUDY    30  18  59 NW23G31   29.84R WCI  17
AUSTIN         CLOUDY    25  14  63 NW18G36   29.89R WCI  11
PRESTON        CLOUDY    25  15  66 NW20G31   29.84R WCI  11
$$
ABBREVIATIONS USED IN REMARKS
   TC - TEMPERATURES IN CELSIUS
  WCI - WIND CHILL INDEX
   HX - HEAT INDEX
  VSB - VISIBILITY
$$




USA.gov is the U.S. government's official web portal to all federal, state and local government web resources and services.